Location: Syracuse
(43.0480°N, 76.1480°W)
Time: 07:29:11
(UTC-05:00)

Daily predictions for brighter satellites

Satellite Brightness Start Highest point End
(mag) Time Altitude Azimuth Time Altitude Azimuth Time Altitude Azimuth
CZ-3B DEB 2.2 16:50:43 10° SSW 16:53:53 51° SE 17:01:30 10° NE
Cosmos 1844 Rocket 2.7 16:51:24 10° SSW 16:57:00 83° ESE 17:02:39 10° NNE
Okean 3 4.1 16:54:26 10° SSW 16:58:39 62° W 17:02:54 10° N
Thor Agena Rocket 4.2 16:54:01 10° NNE 16:58:53 38° E 17:03:46 10° SSE
Cosmos 2218 Rocket 4.1 16:57:42 10° N 17:03:55 58° ENE 17:10:00 10° SSE
Cosmos 2251 Rocket 3.5 17:00:12 10° NNW 17:05:34 67° ENE 17:10:50 10° SSE
Cosmos 1812 3.3 17:02:59 10° SSE 17:06:33 37° E 17:10:08 10° NNE
Cosmos 2181 Rocket 4.2 17:01:43 10° S 17:08:06 85° W 17:14:35 10° N
SL-27 R/B 2.7 17:06:18 10° NNW 17:09:59 81° WSW 17:13:37 10° SSE
CORIOLIS 4.4 17:05:03 10° SE 17:10:13 48° ENE 17:15:23 10° N
CZ-2C R/B 3.9 17:06:39 10° N 17:11:06 73° WNW 17:15:34 10° SSW
Meteor 1-18 Rocket 4.3 17:12:20 10° S 17:17:50 58° E 17:23:29 10° NNE
Okean 1 3.9 17:14:58 10° SSE 17:18:43 38° E 17:22:30 10° NNE
Cosmos 1844 3.7 17:14:41 10° SSW 17:20:15 87° WNW 17:25:51 10° NNE
Abrixas 3.1 17:18:13 10° NW 17:21:01 37° NNE 17:23:15 14° E
Cosmos 1346 Rocket 3.4 17:26:09 10° SSE 17:29:39 33° E 17:33:10 10° NNE
Cosmos 375 4.3 17:27:00 10° NNW 17:31:33 69° NE 17:35:24 10° SE
ISS -1.8 17:30:04 10° W 17:32:56 27° NNW 17:35:07 14° NE
Cosmos 1544 Rocket 3.9 17:28:42 10° NNW 17:33:10 72° W 17:37:36 10° S
SJ-7 4.4 17:29:15 10° SSE 17:33:29 76° ENE 17:37:44 10° N
USA 116 4.5 17:29:47 10° NNE 17:35:13 89° ESE 17:40:22 10° SSW
Cosmos 2278 Rocket 2.2 17:29:52 10° SSW 17:35:30 77° ESE 17:41:10 10° NNE
COSMO-SKYMED 1 3.4 17:33:21 10° NNE 17:37:12 31° E 17:41:04 10° SSE
SMAP 3.1 17:34:57 10° SSE 17:39:37 82° WSW 17:44:18 10° NNW
USA 234 3.3 17:34:55 12° NE 17:41:06 83° NW 17:47:38 10° SW
SL-24 DEB 4.3 17:36:49 10° NNE 17:41:29 55° E 17:46:05 10° S
CZ-4 R/B 4.4 17:42:15 10° SSE 17:46:24 83° ENE 17:50:35 10° N
BREEZE M DEB (TANK) 3.3 17:44:56 10° NW 17:48:02 46° NNE 17:53:28 17° E
SL-8 R/B 3.7 17:44:42 10° WSW 17:49:29 80° NNW 17:52:28 23° ENE
Genesis I 3.1 17:46:50 10° NW 17:50:47 90° WSW 17:54:41 10° SSE
NOSS 3-4 (A) 4.3 17:46:01 10° NNW 17:52:25 38° NE 17:57:34 17° ESE
NOSS 3-4 (C) 4.3 17:46:07 10° NNW 17:52:31 38° NE 17:57:35 17° E
Cosmos 1536 Rocket 3.8 17:50:33 10° SSW 17:55:00 73° W 17:59:30 10° N
Nadezhda 3 Rocket 4.0 17:50:23 10° S 17:56:26 60° E 18:02:36 10° NNE
Cosmos 1833 Rocket 2.8 17:51:53 10° NNW 17:57:22 49° ENE 18:02:48 10° SE
Cosmos 1025 Rocket 3.9 17:55:26 10° SSE 17:59:10 28° E 17:59:28 28° E
NOSS 3-3 (A) 4.1 17:53:42 10° SW 17:59:54 79° NW 18:05:35 15° NE
NOSS 3-3 (C) 4.1 17:53:48 10° SW 18:00:01 80° NW 18:05:40 15° NE
Cosmos 2082 Rocket 2.2 17:54:31 10° NNW 18:00:08 61° ENE 18:05:45 10° SE
Cosmos 921 Rocket 3.2 17:57:31 10° S 18:01:35 47° ESE 18:03:30 27° NE
EP 1 4.1 18:00:00 10° SSW 18:02:34 66° SE 18:02:42 64° E
YAOGAN 1 3.6 17:59:14 10° S 18:03:24 48° W 18:07:37 10° NNW
Cosmos 1238 Rocket 4.2 18:01:04 10° SW 18:03:41 28° WNW 18:06:27 10° NNW
MSX 4.0 17:58:33 10° S 18:04:18 78° WSW 18:10:05 10° NNW
Meteor 2-21 Rocket 4.4 17:58:12 10° N 18:04:24 69° E 18:10:30 10° SSE
CZ-4 R/B 3.5 18:01:19 10° SSW 18:05:00 31° W 18:08:43 10° NNW
Cosmos 1975 3.4 18:01:06 10° NNW 18:05:06 59° W 18:09:04 10° S
Cosmos 1743 2.8 18:01:46 10° N 18:05:35 51° E 18:09:21 10° SSE
GRACE-2 3.9 18:03:19 10° SSE 18:05:48 57° ESE 18:05:48 57° ESE
GRACE-1 3.8 18:03:44 10° S 18:06:18 60° ESE 18:06:18 60° ESE
Meteor 2-16 Rocket 4.4 18:00:59 10° N 18:06:59 59° ENE 18:12:59 10° SSE
SKYMED 3 4.5 18:03:45 14° NNE 18:07:22 66° E 18:11:41 10° S
ATLAS 2AS CENTAUR R/B 4.2 18:00:03 10° NW 18:07:34 45° WSW 18:14:34 10° S
COSMOS 2487 2.8 18:06:11 10° NNW 18:09:45 68° WSW 18:13:19 10° S
GEOS 3 Rocket 3.7 18:06:32 20° ESE 18:09:53 50° NE 18:14:50 10° NNW
Cosmos 1500 3.7 18:06:27 10° NNW 18:10:16 63° W 18:14:04 10° S
Cosmos 1484 Rocket 2.6 18:08:04 10° SSE 18:11:48 85° WSW 18:15:33 10° NNW
CZ-2C R/B 3.9 18:08:00 10° SSW 18:12:42 40° W 18:17:32 10° NNW
Meteor 1-28 Rocket 3.5 18:15:53 46° ESE 18:15:53 46° ESE 18:19:27 10° S
Tiangong 1 1.4 18:17:08 10° WSW 18:19:54 53° S 18:19:54 53° S
Meteor 1-13 Rocket 4.2 18:14:57 10° S 18:20:38 85° E 18:26:30 10° NNE
SKYMED 2 3.6 18:21:59 16° N 18:25:25 79° WNW 18:29:45 10° SSW
Meteor 1-23 Rocket 4.4 18:22:02 10° SSE 18:27:30 49° E 18:29:14 37° NE
IDEFIX/ARIANE 42P 4.5 18:24:39 10° SSW 18:29:12 30° W 18:33:45 10° NW
FALCON 9 R/B 3.9 18:07:10 10° WSW 18:31:13 54° S 18:35:31 27° ESE
BREEZE-M R/B 4.0 18:23:06 10° WSW 18:32:57 69° NNW 18:34:45 42° NE
Meteor 2-4 Rocket 3.5 18:31:39 10° S 18:36:58 68° E 18:38:55 39° NNE
Okean 1-7 Rocket 3.8 18:32:36 10° SSW 18:37:05 71° W 18:39:56 22° N
Meteor 2-9 Rocket 4.0 18:32:03 10° N 18:37:29 66° ENE 18:42:46 10° SSE
Cosmos 1190 Rocket 4.3 18:37:41 10° NNW 18:41:50 46° NNE 18:41:50 46° NNE
Cosmos 1934 Rocket 3.8 18:40:50 10° N 18:47:04 81° E 18:53:21 10° S
NOSS 2-1 (D) 3.7 18:50:03 10° SW 18:53:30 61° W 18:53:30 61° W
NOSS 2-1 (C) 3.7 18:50:43 10° SW 18:54:09 62° W 18:54:09 62° W
Meteor 2-8 Rocket 4.3 18:58:04 10° S 19:04:09 89° WNW 19:06:35 39° N
BREEZE M DEB (TANK) 3.5 19:04:10 10° WSW 19:08:45 43° W 19:08:45 43° W
Cosmos 2278 Rocket 4.4 19:16:17 10° W 19:20:15 19° NW 19:23:40 12° N
USA 234 4.2 19:22:16 32° N 19:23:36 35° NNW 19:29:23 10° W
Cosmos 1605 Rocket 4.1 19:20:22 10° NNW 19:26:39 73° W 19:32:50 10° S
CZ-3B DEB 3.9 19:23:38 10° WNW 19:29:14 44° N 19:31:38 38° NNE
Cosmos 2056 Rocket 4.4 19:28:19 10° SW 19:32:40 47° W 19:32:40 47° W
NOSS 3-4 (A) 4.2 19:36:48 10° NW 19:43:41 57° WSW 19:45:08 49° SSW
NOSS 3-4 (C) 4.2 19:36:54 10° NW 19:43:47 58° WSW 19:45:08 51° SSW
